Weather History for KDDC - February, 2014

Change the Weather History Date:

Saturday, February 15, 2014

  Actual Average Record
Temperature  
Mean Temperature 46 °F -  
Max Temperature 57 °F 47 °F 75 °F (1921)
Min Temperature 35 °F 22 °F -10 °F (1881)
Degree Days  
Heating Degree Days 19    
Moisture  
Dew Point 28 °F    
Average Humidity 57    
Maximum Humidity 79    
Minimum Humidity 25    
Precipitation  
Precipitation 0.00 in - - ()
Sea Level Pressure  
Sea Level Pressure 29.98 in    
Wind  
Wind Speed 13 mph (WNW)    
Max Wind Speed 23 mph    
Max Gust Speed 28 mph    
Visibility 10 miles    
Events      
Averages and records for this station are not official NWS values.
T = Trace of Precipitation, MM = Missing Value Source: NWS Daily Summary

Daily Weather History Graph

Daily Weather History Graph

Search for Another Location

Airport or City:

Trip Planner

Search our weather history database for the weather conditions in past years. The results will help you decide how hot, cold, wet, or windy it might be!

Date:

Astronomy

Feb. 15, 2014 Rise Set
Actual Time 7:29 AM CST 6:19 PM CST
Civil Twilight 7:02 AM CST 6:45 PM CST
Nautical Twilight 6:31 AM CST 7:16 PM CST
Astronomical Twilight 6:01 AM CST 7:47 PM CST
Moon 7:18 PM CST (2/15) 7:30 AM CST (2/15)
Length of Visible Light 11h 43m
Length of Day
10h 49m
Waxing Gibbous, 99% of the Moon is Illuminated
Feb 15
Waxing Gibbous
Feb 22
Last Quarter
Mar 1
New
Mar 8
First Quarter
Mar 16
Full

Hourly Weather History & Observations

Time (CST) Temp. Windchill Dew Point Humidity Pressure Visibility Wind Dir Wind Speed Gust Speed Precip Events Conditions
12:52 AM 33.1 °F 26.9 °F 23.0 °F 66% 30.00 in 10.0 mi South 6.9 mph - N/A   Clear
1:52 AM 35.1 °F 26.9 °F 24.1 °F 64% 29.97 in 10.0 mi South 11.5 mph - N/A   Clear
2:52 AM 32.0 °F 22.1 °F 25.0 °F 75% 29.94 in 10.0 mi South 13.8 mph - N/A   Clear
3:52 AM 30.0 °F 20.0 °F 24.1 °F 79% 29.93 in 10.0 mi South 12.7 mph - N/A   Clear
4:52 AM 32.0 °F 21.6 °F 24.1 °F 73% 29.91 in 10.0 mi South 15.0 mph - N/A   Clear
5:52 AM 36.0 °F 26.3 °F 23.0 °F 59% 29.90 in 10.0 mi SSW 16.1 mph - N/A   Clear
6:52 AM 36.0 °F 25.6 °F 21.9 °F 57% 29.88 in 10.0 mi SSW 18.4 mph - N/A   Clear
7:52 AM 36.0 °F 26.0 °F 21.9 °F 57% 29.88 in 10.0 mi SSW 17.3 mph - N/A   Clear
8:52 AM 37.9 °F 27.6 °F 23.0 °F 55% 29.87 in 10.0 mi SSW 20.7 mph 26.5 mph N/A   Clear
9:52 AM 42.1 °F 33.3 °F 25.0 °F 51% 29.86 in 10.0 mi SW 19.6 mph 26.5 mph N/A   Clear
10:52 AM 48.9 °F - 28.0 °F 44% 29.86 in 10.0 mi SW 16.1 mph 24.2 mph N/A   Clear
11:52 AM 57.0 °F - 30.9 °F 37% 29.91 in 10.0 mi NNW 16.1 mph 24.2 mph N/A   Clear
12:52 PM 57.0 °F - 34.0 °F 42% 29.91 in 10.0 mi North 21.9 mph 27.6 mph N/A   Clear
1:52 PM 55.9 °F - 34.0 °F 44% 29.94 in 10.0 mi North 23.0 mph - N/A   Clear
2:52 PM 55.9 °F - 35.1 °F 45% 29.97 in 10.0 mi North 18.4 mph - N/A   Clear
3:52 PM 57.0 °F - 36.0 °F 45% 29.98 in 10.0 mi North 20.7 mph - N/A   Clear
4:52 PM 55.9 °F - 34.0 °F 44% 30.00 in 10.0 mi North 20.7 mph 27.6 mph N/A   Clear
5:52 PM 50.0 °F - 34.0 °F 54% 30.04 in 10.0 mi North 10.4 mph - N/A   Clear
6:52 PM 44.1 °F 40.1 °F 32.0 °F 63% 30.08 in 10.0 mi North 6.9 mph - N/A   Clear
7:52 PM 39.9 °F 36.7 °F 30.9 °F 70% 30.10 in 10.0 mi NW 4.6 mph - N/A   Clear
8:52 PM 39.0 °F 33.4 °F 30.9 °F 73% 30.11 in 10.0 mi NW 8.1 mph - N/A   Clear
9:52 PM 37.0 °F 31.6 °F 30.0 °F 76% 30.13 in 10.0 mi WNW 6.9 mph - N/A   Clear
10:52 PM 35.1 °F 31.0 °F 28.0 °F 76% 30.12 in 10.0 mi NNW 4.6 mph - N/A   Clear
11:52 PM 35.1 °F 29.3 °F 28.0 °F 76% 30.11 in 10.0 mi NW 6.9 mph - N/A   Clear